Location: Biltmore Gardens
(41.6070°N, 83.4666°W)
Time: 14:25:13
(UTC+00:00)

IDEFIX/ARIANE 42P - Pass Details

Date: 14 July 2020
Orbit: 784 x 804 km, 98.4° (Epoch: 04 August)

Event Time Altitude Azimuth Distance (km) Brightness Sun altitude
Rises 08:37:10 0° 15° (NNE) 3,288 7.0 -14.7°
Reaches altitude 10° 08:39:31 10° 18° (NNE) 2,354 6.1 -14.4°
Maximum altitude 08:44:42 68° 102° (ESE) 844 2.8 -13.7°
Enters shadow 08:49:47 10° 185° (S) 2,319 4.5 -13.0°
